AirNav   ATP
 
 356 users online  

43K Marion Municipal Airport
Marion, Kansas, USA


FAA INFORMATION EFFECTIVE 07 DECEMBER 2017

Location

FAA Identifier: 43K
Lat/Long: 38-20-15.4000N / 096-59-17.7000W
38-20.256667N / 096-59.295000W
38.3376111 / -96.9882500
(estimated)
Elevation: 1390 ft. / 424 m (estimated)
Variation: 07E (1985)
From city: 2 miles SE of MARION, KS
Time zone: UTC -6 (UTC -5 during Daylight Saving Time)
Zip code: 66861

Airport Operations

Airport use: Open to the public
Activation date: 12/1945
Control tower: no
ARTCC: KANSAS CITY CENTER
FSS: WICHITA FLIGHT SERVICE STATION
NOTAMs facility: ICT (NOTAM-D service available)
Attendance: UNATNDD
PHONE AVBL 24 HRS.
Wind indicator: yes
Segmented circle: no
Beacon: white-green (lighted land airport)
Operates sunset to sunrise.

Airport Communications

CTAF: 122.9

Nearby radio navigation aids

VOR radial/distance  VOR name  Freq  Var
FRIr183/(38.4)FORT RILEY VOR109.4006E

 
NDB name  Hdg/Dist  Freq  Var  ID
NEWTON033/21.228106EEWK . .-- -.-
HERINGTON195/22.940706EHRU .... .-. ..-

Airport Services

Fuel available: 100LL MOGAS
Parking: hangars and tiedowns
Airframe service: NONE
Powerplant service: NONE
Bottled oxygen: NONE
Bulk oxygen: NONE

Runway Information

Runway 17/35

Dimensions: 2573 x 40 ft. / 784 x 12 m
Surface: asphalt, in good condition
Runway edge lights: low intensity
Runway edge markings: RWY 35 ALIGNMENT NUMBERS FADED.
RUNWAY 17  RUNWAY 35
Latitude: 38-20.455545N38-20.031528N
Longitude: 096-59.227317W096-59.227317W
Elevation: 1382.0 ft.1378.0 ft.
Traffic pattern: leftleft
Runway heading: 173 magnetic, 180 true353 magnetic, 000 true
Markings: numbers only, in good conditionnumbers only, in good condition

Runway 3/21

Dimensions: 2745 x 95 ft. / 837 x 29 m
Surface: turf, in good condition
RY 03/21 IS SLIGHTLY ROUGH.
Runway edge markings: 03/21 THLDS & EDGES MKD WITH YELLOW PAINTED TIRES.
RUNWAY 3  RUNWAY 21
Traffic pattern: leftleft
Obstructions: 4 ft. fence
THE PROXIMITY OF THE FENCE TO THE RWY ESTABLISHES THE CONTROLLING OBSTRUCTION. THE 35' TO 40' TREES DIRECTLY BEHIND WOULD BE MORE OF A CONCERN FOR APPROACHING AIRCRAFT.
22 ft. pline, 735 ft. from runway, 170 ft. left of centerline, 33:1 slope to clear

Runway 13/31

Dimensions: 2722 x 50 ft. / 830 x 15 m
Surface: turf, in good condition
Runway edge markings: 13/31 THLD & EDGES MKD WITH YELLOW PAINTED TIRES.
RUNWAY 13  RUNWAY 31
Traffic pattern: leftleft
Obstructions: 14 ft. treesnone

Runway 18/36

Dimensions: 2310 x 67 ft. / 704 x 20 m
Surface: turf, in good condition
Runway edge markings: RY 18/36 THLD DELINEATED WITH YELLOW PAINTED TIRES.
RUNWAY 18  RUNWAY 36
Latitude: 38-20.459450N38-20.079648N
Longitude: 096-59.352258W096-59.385003W
Elevation: 1380.0 ft.1378.0 ft.
Traffic pattern: leftleft
Runway heading: 177 magnetic, 184 true357 magnetic, 004 true
Obstructions: 4 ft. fence, 9 ft. from runway, 30 ft. left and right of centerline, 2:1 slope to clearnone

Airport Ownership and Management from official FAA records

Ownership: Publicly-owned
Owner: CITY OF MARION
208 EAST SANTA FE
MARION, KS 66861
Phone 620-382-3703
Manager: DOUG KJELLIN
208 EAST SANTA FE
MARION, KS 66861
Phone 620-382-3703
MR.MAYFIELD IS CITY MGR. OF MARION KS.

Airport Operational Statistics

Aircraft based on the field: 17
Single engine airplanes: 16
Ultralights: 1
    
Aircraft operations: avg 25/day *
66% local general aviation
33% transient general aviation
<1% military
* for 12-month period ending 29 September 2016

Additional Remarks

A58-35 RWY 35 ROAD ABANDONED & IS GATED FM TRAFFIC. +4 FT FENCE; 70 FT FRM END OF RWY; BOTH SIDES OF RWY.
A58-17 +4' FENCE 5' FROM RWY END 30' L & R OF CNTRLEN; LOWERED AT RWY.

Instrument Procedures

There are no published instrument procedures at 43K.

Some nearby airports with instrument procedures:

KEWK - Newton City/County Airport (22 nm SW)
KHRU - Herington Regional Airport (23 nm N)
47K - Moundridge Municipal Airport (25 nm W)
KMPR - Mc Pherson Airport (33 nm W)
1K1 - Lloyd Stearman Field Airport (34 nm S)
 
Loc | Ops | Rwys | IFR | FBO | Links
Com | Nav | Svcs | Stats | Notes

Kansas City Aviation Department
 
Area around 43K (Marion Municipal Airport)
 
Road maps at: MapQuest Bing Google
 
Aerial photo
WARNING: Photo may not be current or correct
Aerial photo of 43K (Marion Municipal Airport)
Photo by Paul Hodson
Photo taken 21-Jan-2006
taken from a C182 from the northwest

Do you have a better or more recent aerial photo of Marion Municipal Airport that you would like to share? If so, please send us your photo.

 
Sectional chart

 
Airport distance calculator
Flying to Marion Municipal Airport? Find the distance to fly.

From to 43K

Sunrise and sunset
Times for 13-Dec-2017
 Local
(UTC-6)
 Zulu
(UTC)
Morning civil twilight07:0813:08
Sunrise07:3713:37
Sunset17:0723:07
Evening civil twilight17:3723:37

Current date and time
Zulu (UTC)  13-Dec-2017 08:07:51
Local (UTC-6)  13-Dec-2017 02:07:51
 
METAR
KEWK 
22nm SW 
130756Z AUTO 21011KT 10SM CLR 02/M04 A2987 RMK AO2 SLP119 T00221039 FZRANO
K1K1 
34nm S 
130755Z AUTO 20007KT 10SM CLR 01/M03 A2989 RMK AO2 T00121035
KEQA 
35nm S 
130755Z AUTO 20009KT 10SM CLR 03/M02 A2989 RMK AO2
KAAO 
37nm S 
130754Z AUTO 21010KT 10SM CLR 03/M03 A2988 RMK AO2 SLP126 T00331028
KEMP 
37nm E 
130753Z AUTO 21007KT 10SM CLR 02/M03 A2986 RMK AO2 SLP119 T00171033
KBEC 
40nm S 
130755Z AUTO 21008KT 10SM CLR 02/M03 A2988 RMK AO2 T00211035
K3AU 
40nm S 
130755Z AUTO 18006KT 10SM CLR 00/M02 A2990 RMK AO2
KSLN 
41nm NW 
130753Z AUTO 18005KT 10SM CLR 01/M06 A2983 RMK AO2 SLP105 T00061061
KFRI 
43nm N 
130756Z AUTO 24009KT 10SM CLR 03/M04 A2981 RMK AO2 SLP099 T00291043
KHUT 
44nm W 
130752Z AUTO 00000KT 10SM CLR 00/M06 A2987 RMK AO2 SLP112 T00001056
TAF
KSLN 
41nm NW 
130538Z 1306/1406 21012KT P6SM SKC FM131000 26012KT P6SM SKC FM131300 31013KT P6SM SCT250 FM131700 33022G30KT P6SM SCT250 FM132300 34010KT P6SM BKN250
KFRI 
43nm N 
130000Z 1300/1406 23006KT 9999 FEW100 QNH2978INS BECMG 1303/1304 28006KT 9999 FEW100 WS020/26035KT QNH2979INS BECMG 1317/1318 31015G20KT 9999 SKC 510053 QNH2985INS TEMPO 1318/1322 33020G30KT BECMG 1323/1324 33009KT 9999 FEW100 QNH2993INS TX14/1317Z TNM03/1305Z
KHUT 
44nm W 
130538Z 1306/1406 21006KT P6SM SKC FM130800 26008KT P6SM SKC FM131200 31013KT P6SM SCT250 FM131600 33019G27KT P6SM SCT250 FM132300 35010KT P6SM BKN250
KIAB 
45nm S 
130200Z 1302/1408 23006KT 9999 SKC QNH2986INS BECMG 1317/1318 34020G30KT 9999 SCT150 510053 QNH2990INS BECMG 1320/1321 33012G18KT 9999 FEW150 510053 QNH2988INS BECMG 1323/1324 32009KT 9999 SCT150 QNH2993INS TX12/1317Z TNM01/1311Z
KICT 
46nm SW 
130538Z 1306/1406 21008KT P6SM SKC FM131200 26009KT P6SM SKC FM131400 31013KT P6SM SCT250 FM131700 34019G27KT P6SM SCT250 FM132300 35010KT P6SM BKN250
KMHK 
50nm N 
130535Z 1306/1406 23007KT P6SM SKC WS015/32045KT FM131400 28013KT P6SM FEW250 FM131700 33020G29KT P6SM SKC FM132300 33011KT P6SM SKC
NOTAMs
Click for the latest NOTAMs
NOTAMs are issued by the DoD/FAA and will open in a separate window not controlled by AirNav.

 

 
 

Would you like to see your business listed on this page?

 If your business provides an interesting product or service to pilots, flight crews, aircraft, or users of the Marion Municipal Airport, you should consider listing it here.  To start the listing process, click on the button below
 
Add a business
 

Other Pages about Marion Municipal Airport

Update a link
 
Copyright © AirNav, LLC. All rights reserved. Privacy Policy  Contact